TheGetRank SiteMap Page 5224
Home 5174 5175 5176 5177 5178 5179 5180 5181 5182 5183 5184 5185 5186 5187 5188 5189 5190 5191 5192 5193 5194 5195 5196 5197 5198 5199 5200 5201 5202 5203 5204 5205 5206 5207 5208 5209 5210 5211 5212 5213 5214 5215 5216 5217 5218 5219 5220 5221 5222 5223 5224 5225 5226 5227 5228 5229 5230 5231 5232 5233 5234 5235 5236 5237 5238 5239 5240 5241 5242 5243 5244 5245 5246 5247 5248 5249 5250 5251 5252 5253 5254 5255 5256 5257 5258 5259 5260 5261 5262 5263 5264 5265 5266 5267 5268 5269 5270 5271 5272 5273 5274
S.NO. Website Pagerank Alexa Rank Last Updated
5223000 familial.ch 0 11484105 2012-04-19 12:29:20
5223001 franada.com 0 No Rank 2012-04-19 12:29:25
5223002 fuchu.ed.jp 0 No Rank 2012-04-19 12:29:29
5223003 funytel.com 0 No Rank 2012-04-19 12:29:33
5223004 forsmann.de 0 No Rank 2012-04-19 12:30:05
5223005 falussy.com 0 No Rank 2012-04-19 12:31:08
5223006 fiat-vag.ru 0 No Rank 2012-04-19 12:32:09
5223007 f-o-a-m.org 0 No Rank 2012-04-19 12:32:32
5223008 fatelca.com 0 No Rank 2012-04-19 12:32:32
5223009 fatawaa.com 0 28023981 2012-04-19 12:33:02
5223010 freeludy.cn 0 2638839 2012-04-19 12:33:24
5223011 fiscosos.it 0 No Rank 2012-04-19 12:34:23
5223012 farah.com.jo 0 No Rank 2012-04-19 12:35:17
5223013 fullsound.cn 0 4691740 2012-04-19 12:36:03
5223014 fsquared.com 0 11134540 2012-04-19 12:36:55
5223015 fotoden.info 0 149946 2012-04-19 12:37:11
5223016 ftcinvest.ru 0 2672198 2012-04-19 12:37:13
5223017 forex216.com 0 6647241 2012-04-19 12:38:06
5223018 fijiisme.com 0 24825752 2012-04-19 12:38:33
5223019 fealab.ru 0 26349441 2012-04-19 12:39:03
5223020 fischoff.com 0 No Rank 2012-04-19 12:40:50
5223021 fanpages.net 0 4271563 2012-04-19 12:41:24
5223022 fangwu.tw 0 No Rank 2012-04-19 12:41:24
5223023 fanphoto.org 0 No Rank 2012-04-19 12:41:24
5223024 fanrap.vn 0 No Rank 2012-04-19 12:41:25
5223025 fanselow-bell.co.nz 0 10318623 2012-04-19 12:41:26
5223026 fantasiafotografica.com 0 No Rank 2012-04-19 12:41:27
5223027 fantasiashihtzu.ca 0 No Rank 2012-04-19 12:41:27
5223028 fanserials.ru 0 324663 2012-04-19 12:41:28
5223029 fanrei.net 0 No Rank 2012-04-19 12:41:29
5223030 fanus.org 0 No Rank 2012-04-19 12:41:31
5223031 fantastiske-fosen.com 0 No Rank 2012-04-19 12:41:32
5223032 fantplastic.ru 0 No Rank 2012-04-19 12:41:33
5223033 fantasycar.ru 0 9425013 2012-04-19 12:41:33
5223034 fanxc.net 0 No Rank 2012-04-19 12:41:34
5223035 faprint.com 0 19125802 2012-04-19 12:41:35
5223036 far-ufa.ru 0 14232050 2012-04-19 12:41:36
5223037 faricon.com 0 18564397 2012-04-19 12:41:37
5223038 farkasmeheszet.hu 0 22108852 2012-04-19 12:41:38
5223039 farforushka.ru 0 3476316 2012-04-19 12:41:38
5223040 faraonrealty.ru 0 No Rank 2012-04-19 12:41:38
5223041 farinacostruzioni.it 0 No Rank 2012-04-19 12:41:38
5223042 fwservice.de 0 21642527 2012-04-19 12:41:39
5223043 farmacologianews.net 0 No Rank 2012-04-19 12:41:42
5223044 farmgarden.jp 0 No Rank 2012-04-19 12:41:42
5223045 farmingtonpinebrook.org 0 No Rank 2012-04-19 12:41:42
5223046 farmer-games.com 0 15042412 2012-04-19 12:41:43
5223047 farmingtonupc.com 0 No Rank 2012-04-19 12:41:44
5223048 farmvilleguru.org 0 No Rank 2012-04-19 12:41:46
5223049 farmville.it 0 5019238 2012-04-19 12:41:47
5223050 faroauto.com.uy 0 No Rank 2012-04-19 12:41:48
5223051 farmcove.school.nz 0 33480 2012-04-19 12:41:48
5223052 faro-airport-transfers.net 0 11828518 2012-04-19 12:41:50
5223053 farsicom.com 0 1115063 2012-04-19 12:41:51
5223054 farrau.pt 0 14268073 2012-04-19 12:41:51
5223055 farukstransport.se 0 27067813 2012-04-19 12:41:52
5223056 faschinginlinz.at 0 No Rank 2012-04-19 12:41:52
5223057 fashion-studio.fr 0 No Rank 2012-04-19 12:41:55
5223058 fashionablesun.com 0 16326002 2012-04-19 12:41:55
5223059 fascynacjadzwiekiem.pl 0 No Rank 2012-04-19 12:41:55
5223060 fascialkinetics.co.nz 0 No Rank 2012-04-19 12:41:55
5223061 farahy.net 0 16689956 2012-04-19 12:41:59
5223062 farouk.ch 0 No Rank 2012-04-19 12:41:59
5223063 fashionbiz.ca 0 9128757 2012-04-19 12:41:59
5223064 fashionconsult.ru 0 26600136 2012-04-19 12:42:00
5223065 fashionmoment.fi 0 No Rank 2012-04-19 12:42:00
5223066 fraza.com.pl 0 8425189 2012-04-19 12:42:00
5223067 fashionmenstore.info 0 No Rank 2012-04-19 12:42:00
5223068 fashionvalue.se 0 No Rank 2012-04-19 12:42:02
5223069 fasiagroup.com 0 12494617 2012-04-19 12:42:03
5223070 fashionreality.ru 0 4758832 2012-04-19 12:42:03
5223071 fashionplate.ru 0 No Rank 2012-04-19 12:42:04
5223072 fasnet-calw.de 0 No Rank 2012-04-19 12:42:04
5223073 fasovka-upakovka.ru 0 No Rank 2012-04-19 12:42:05
5223074 fast-charge.net 0 No Rank 2012-04-19 12:42:06
5223075 fasp.org.pk 0 No Rank 2012-04-19 12:42:07
5223076 fast-design.net 0 11339334 2012-04-19 12:42:07
5223077 fasmo.su 0 11687283 2012-04-19 12:42:07
5223078 fastcore.co.il 0 No Rank 2012-04-19 12:42:10
5223079 fastandfurious.ru 0 No Rank 2012-04-19 12:42:10
5223080 fastershell.net 0 No Rank 2012-04-19 12:42:11
5223081 fast-ip.org 0 10638449 2012-04-19 12:42:11
5223082 fastfab.ca 0 No Rank 2012-04-19 12:42:11
5223083 fastquotes.com 0 23533911 2012-04-19 12:42:15
5223084 fastpressgogo.ru 0 No Rank 2012-04-19 12:42:16
5223085 fasttrackportfolio.com 0 No Rank 2012-04-19 12:42:17
5223086 fastweightlossdiets.info 0 No Rank 2012-04-19 12:42:17
5223087 fatamorgana.pt 0 No Rank 2012-04-19 12:42:18
5223088 fatalerror.at 0 No Rank 2012-04-19 12:42:18
5223089 fatbluefish.com 0 No Rank 2012-04-19 12:42:20
5223090 finansee.net 0 4117498 2012-04-19 12:42:20
5223091 fatezerousa.com 0 4214984 2012-04-19 12:42:20
5223092 fatherdaughtereffects.com 0 23410256 2012-04-19 12:42:20
5223093 fathersdaydirectory.org 0 14869642 2012-04-19 12:42:22
5223094 fatheroflightsfilm.com 0 4408908 2012-04-19 12:42:22
5223095 fatibenesnc.it 0 No Rank 2012-04-19 12:42:23
5223096 fathomsnowboardscollingwoodontario.ca 0 18323241 2012-04-19 12:42:23
5223097 fatihram.meb.k12.tr 0 44784 2012-04-19 12:42:23
5223098 fatimadiastarologa.com 0 No Rank 2012-04-19 12:42:24
5223099 fatihsoft.com 0 12124143 2012-04-19 12:42:25
5223100 fatnv.be 0 No Rank 2012-04-19 12:42:26
5223101 faber-wsd.de 0 No Rank 2012-04-19 12:42:28
5223102 faucetaerators.com 0 No Rank 2012-04-19 12:42:30
5223103 fauziah.student.umm.ac.id 0 56409 2012-04-19 12:42:31
5223104 fauna.ru 0 26278820 2012-04-19 12:42:32
5223105 favorite.lt 0 No Rank 2012-04-19 12:42:33
5223106 favoright.ru 0 2065362 2012-04-19 12:42:33
5223107 favor.by 0 7637637 2012-04-19 12:42:33
5223108 fattofit.in 0 No Rank 2012-04-19 12:42:35
5223109 fave.gr 0 718072 2012-04-19 12:42:36
5223110 fawnlake.ca 0 No Rank 2012-04-19 12:42:39
5223111 fawnlakehomes.com 0 No Rank 2012-04-19 12:42:39
5223112 favourboutique.co.nz 0 15915447 2012-04-19 12:42:39
5223113 faxdm.info 0 No Rank 2012-04-19 12:42:43
5223114 faxworld.co.za 0 9098569 2012-04-19 12:42:45
5223115 faxe.at 0 No Rank 2012-04-19 12:42:45
5223116 fayettevillere.com 0 No Rank 2012-04-19 12:42:45
5223117 faxza.co.za 0 No Rank 2012-04-19 12:42:46
5223118 foks.kiev.ua 0 12481953 2012-04-19 12:42:47
5223119 fayettevillesymphony.org 0 No Rank 2012-04-19 12:42:48
5223120 fb-home.info 0 No Rank 2012-04-19 12:42:50
5223121 fbaakuwait.org 0 No Rank 2012-04-19 12:42:51
5223122 fbc-iwakuni.org 0 No Rank 2012-04-19 12:42:55
5223123 fbcbnh.com 0 No Rank 2012-04-19 12:42:55
5223124 fke.prot4.de 0 18886197 2012-04-19 12:42:55
5223125 fbcitalia.it 0 No Rank 2012-04-19 12:42:59
5223126 fbk.gr 0 No Rank 2012-04-19 12:43:02
5223127 fbs.com.gr 0 No Rank 2012-04-19 12:43:04
5223128 fbookconspiracy.com 0 No Rank 2012-04-19 12:43:04
5223129 fbyab.info 0 3685779 2012-04-19 12:43:06
5223130 fbsconsultoria.com.br 0 No Rank 2012-04-19 12:43:07
5223131 fcacophony.com 0 No Rank 2012-04-19 12:43:11
5223132 fc-vostok.kz 0 3364345 2012-04-19 12:43:11
5223133 fcad.lu 0 No Rank 2012-04-19 12:43:13
5223134 fcaktobe-fans.kz 0 672439 2012-04-19 12:43:14
5223135 fcb-connectors.com 0 No Rank 2012-04-19 12:43:14
5223136 fcb-keldervrienden.be 0 No Rank 2012-04-19 12:43:15
5223137 fcbarrock.be 0 No Rank 2012-04-19 12:43:17
5223138 fcc-ministries.org 0 No Rank 2012-04-19 12:43:17
5223139 fccnewphila.org 0 No Rank 2012-04-19 12:43:19
5223140 fccdenton.org 0 No Rank 2012-04-19 12:43:19
5223141 fce.at 0 21357058 2012-04-19 12:43:19
5223142 fcichaven.org 0 No Rank 2012-04-19 12:43:22
5223143 fcefastprint.com 0 12345393 2012-04-19 12:43:23
5223144 fcm-russia.ru 0 13070825 2012-04-19 12:43:26
5223145 fcsparta.pl.ua 0 No Rank 2012-04-19 12:43:29
5223146 f-consalt.ru 0 4240515 2012-04-19 12:43:31
5223147 fdab.info 0 No Rank 2012-04-19 12:43:33
5223148 f-e-a-r.org 0 16802580 2012-04-19 12:43:33
5223149 fdme.co.za 0 No Rank 2012-04-19 12:43:36
5223150 fdog.ru 0 No Rank 2012-04-19 12:43:37
5223151 fdrfuelpump.com 0 No Rank 2012-04-19 12:43:38
5223152 fdzclothing.com 0 20531735 2012-04-19 12:43:38
5223153 f-lmet.ru 0 4975485 2012-04-19 12:43:39
5223154 fdren.cn 0 9355173 2012-04-19 12:43:40
5223155 feaklefestival.ie 0 No Rank 2012-04-19 12:43:42
5223156 fcvion.sk 0 No Rank 2012-04-19 12:43:43
5223157 fe-education.com 0 23732680 2012-04-19 12:43:44
5223158 fe.untag-banyuwangi.ac.id 0 5439854 2012-04-19 12:43:45
5223159 fe.unila.ac.id 0 115666 2012-04-19 12:43:46
5223160 fear.at 0 No Rank 2012-04-19 12:43:46
5223161 feddyups.net 0 No Rank 2012-04-19 12:43:47
5223162 f-vegus.ru 0 No Rank 2012-04-19 12:43:48
5223163 f1-simulator.at 0 No Rank 2012-04-19 12:43:49
5223164 f1-representation.de 0 16533702 2012-04-19 12:43:49
5223165 f1-tv.info 0 1055516 2012-04-19 12:43:50
5223166 fa-perche.ch 0 No Rank 2012-04-19 12:43:54
5223167 fabela.ru 0 No Rank 2012-04-19 12:43:56
5223168 feel-mp3.ru 0 5585167 2012-04-19 12:43:56
5223169 fabien.egot.free.fr 0 No Rank 2012-04-19 12:43:59
5223170 fabozzidental.com 0 24519861 2012-04-19 12:44:02
5223171 feeria.kiev.ua 0 No Rank 2012-04-19 12:44:02
5223172 fef.es 0 2096737 2012-04-19 12:44:02
5223173 feigroup.org 0 No Rank 2012-04-19 12:44:05
5223174 feiradoautomoveldemaua.com.br 0 No Rank 2012-04-19 12:44:06
5223175 feiradeciencias.com 0 No Rank 2012-04-19 12:44:06
5223176 feldbach-rechtsanwalt.at 0 No Rank 2012-04-19 12:44:10
5223177 fabrikverkauf-metzingen.de 0 No Rank 2012-04-19 12:44:11
5223178 feldenkrais-shelhav.com 0 14492148 2012-04-19 12:44:11
5223179 feldschuetzen-busswil.ch 0 No Rank 2012-04-19 12:44:13
5223180 facepainter.ca 0 28138702 2012-04-19 12:44:18
5223181 facedivorce.com 0 1838541 2012-04-19 12:44:18
5223182 faceworld-lefilm.com 0 No Rank 2012-04-19 12:44:21
5223183 femacorp.com 0 893296 2012-04-19 12:44:21
5223184 fachanwaelte-hannover.com 0 No Rank 2012-04-19 12:44:22
5223185 felletin.fr 0 No Rank 2012-04-19 12:44:23
5223186 facial-cosmetics.com 0 No Rank 2012-04-19 12:44:23
5223187 funp.com.tw 0 119595 2012-04-19 12:44:25
5223188 femaleru.net 0 13801117 2012-04-19 12:44:26
5223189 facliup.net 0 No Rank 2012-04-19 12:44:27
5223190 feman.sk 0 No Rank 2012-04-19 12:44:27
5223191 feminett.fi 0 No Rank 2012-04-19 12:44:28
5223192 factor-m.ru 0 23705333 2012-04-19 12:44:29
5223193 fenceoutlet.org 0 No Rank 2012-04-19 12:44:32
5223194 fence-electric.co.za 0 No Rank 2012-04-19 12:44:33
5223195 factoria.it 0 330663 2012-04-19 12:44:34
5223196 fendi.directoriosonline.com.co 0 573329 2012-04-19 12:44:34
5223197 factory.ee 0 12663256 2012-04-19 12:44:39
5223198 factorycoiffeurs.ch 0 No Rank 2012-04-19 12:44:40
5223199 factorydirectkitchens.ca 0 No Rank 2012-04-19 12:44:41
5223200 fengshuiconseil.com 0 No Rank 2012-04-19 12:44:44
5223201 fengshui.ac 0 No Rank 2012-04-19 12:44:46
5223202 fade.it 0 No Rank 2012-04-19 12:44:46
5223203 fengshuidashi.net 0 No Rank 2012-04-19 12:44:52
5223204 fengshuimenas.lt 0 No Rank 2012-04-19 12:44:53
5223205 feniks-plus.ru 0 No Rank 2012-04-19 12:44:56
5223206 fagot-kiev.com.ua 0 1796447 2012-04-19 12:44:58
5223207 fengshuimasters.org 0 14514836 2012-04-19 12:45:00
5223208 fenixmoving.com 0 No Rank 2012-04-19 12:45:02
5223209 fahrradfensterputzer.at 0 No Rank 2012-04-19 12:45:02
5223210 fairebeau.net 0 No Rank 2012-04-19 12:45:06
5223211 fennerboden.ch 0 No Rank 2012-04-19 12:45:06
5223212 ficpi.org.au 0 No Rank 2012-04-19 12:45:07
5223213 fenso.org 0 No Rank 2012-04-19 12:45:08
5223214 fairfaxsymphony.org 0 15241881 2012-04-19 12:45:10
5223215 feperks.com 0 9653254 2012-04-19 12:45:14
5223216 fairolympics.org 0 12644126 2012-04-19 12:45:16
5223217 feresinehijos.com.ar 0 No Rank 2012-04-19 12:45:16
5223218 fairviewbeach.net 0 No Rank 2012-04-19 12:45:17
5223219 ferdig-montert.no 0 No Rank 2012-04-19 12:45:18
5223220 fergiephoto.net 0 No Rank 2012-04-19 12:45:19
5223221 ferien-berge.ch 0 No Rank 2012-04-19 12:45:21
5223222 ferien-hornung.de 0 No Rank 2012-04-19 12:45:22
5223223 ferienhaus-beim-jaga.at 0 No Rank 2012-04-19 12:45:26
5223224 fairweatherweb.net 0 10979804 2012-04-19 12:45:27
5223225 faithcanaanbc.org 0 No Rank 2012-04-19 12:45:28
5223226 ferienhaus-frisiastraat.de 0 No Rank 2012-04-19 12:45:29
5223227 ferienhaus-heuberger.de 0 20808609 2012-04-19 12:45:30
5223228 fabrikaokon46.ru 0 7942565 2012-04-19 12:45:33
5223229 ferienhaus-naturpark-zittauergebirge.de 0 No Rank 2012-04-19 12:45:33
5223230 faithstudio.net 0 No Rank 2012-04-19 12:45:35
5223231 ferienhausmietenspanien.de 0 15573837 2012-04-19 12:45:35
5223232 ferienwohnung-oberer-neckar.de 0 No Rank 2012-04-19 12:45:36
5223233 fenixoutdoor.cn 0 2509317 2012-04-19 12:45:39
5223234 faizaneashraf.net 0 No Rank 2012-04-19 12:45:39
5223235 faizal.student.umm.ac.id 0 56409 2012-04-19 12:45:42
5223236 ferme.it 0 17639474 2012-04-19 12:45:43
5223237 fermarestoran.ru 0 No Rank 2012-04-19 12:45:45
5223238 fajar87.student.umm.ac.id 0 56409 2012-04-19 12:45:45
5223239 ferneytherapy.ie 0 No Rank 2012-04-19 12:45:48
5223240 fajnart.sk 0 No Rank 2012-04-19 12:45:49
5223241 fernprints.net 0 No Rank 2012-04-19 12:45:49
5223242 frogpaws.com 0 No Rank 2012-04-19 12:45:50
5223243 farrajco.com 0 No Rank 2012-04-19 12:45:50
5223244 fajtamentes.beagle-club.hu 0 547776 2012-04-19 12:45:52
5223245 ferovahypoteka.cz 0 19461586 2012-04-19 12:45:53
5223246 fakerank.org 0 263927 2012-04-19 12:45:56
5223247 ferrarispacinotti.org 0 No Rank 2012-04-19 12:45:56
5223248 ferratetours.com 0 11112902 2012-04-19 12:45:56
5223249 favoritos.com 0 15593915 2012-04-19 12:45:57
5223250 fala.com.ve 0 No Rank 2012-04-19 12:45:59
5223251 ferrecarpintero.com.mx 0 No Rank 2012-04-19 12:46:00
5223252 ferratus.es 0 11299809 2012-04-19 12:46:00
5223253 falconergroup.com 0 No Rank 2012-04-19 12:46:04
5223254 falckmagasinet.dk 0 No Rank 2012-04-19 12:46:04
5223255 falconbags.ru 0 No Rank 2012-04-19 12:46:07
5223256 fesimo.ch 0 No Rank 2012-04-19 12:46:08
5223257 falconry.net 0 No Rank 2012-04-19 12:46:08
5223258 fesroc.com 0 No Rank 2012-04-19 12:46:10
5223259 falcothefrog.com 0 No Rank 2012-04-19 12:46:12
5223260 festivaldemusicaraiz.com.br 0 No Rank 2012-04-19 12:46:13
5223261 festivaldufilmdeparis.com 0 3608189 2012-04-19 12:46:13
5223262 festivaljapon.com 0 No Rank 2012-04-19 12:46:15
5223263 festivaria.eu 0 No Rank 2012-04-19 12:46:17
5223264 falinda.ru 0 21867102 2012-04-19 12:46:18
5223265 falegnameriaripamonti.it 0 No Rank 2012-04-19 12:46:18
5223266 festiwal.ru 0 No Rank 2012-04-19 12:46:20
5223267 forum2.km.ru 0 8927 2012-04-19 12:46:21
5223268 festkiefer.eu 0 No Rank 2012-04-19 12:46:21
5223269 festo-didactic.com 0 397979 2012-04-19 12:46:22
5223270 feststoff-leipzig.de 0 No Rank 2012-04-19 12:46:24
5223271 feteduchocolat.be 0 No Rank 2012-04-19 12:46:25
5223272 fesztivalklaszter.hu 0 26612090 2012-04-19 12:46:26
5223273 fetia.net 0 7349962 2012-04-19 12:46:28
5223274 fetie.ru 0 No Rank 2012-04-19 12:46:30
5223275 feuerfaden.de 0 11017925 2012-04-19 12:46:32
5223276 fallenangeldesigns.net 0 No Rank 2012-04-19 12:46:33
5223277 fallinlove.ru 0 No Rank 2012-04-19 12:46:33
5223278 feuerwehr-suchhunde.org 0 No Rank 2012-04-19 12:46:36
5223279 feuerwerks-kunst.at 0 No Rank 2012-04-19 12:46:36
5223280 feuerwehr-teufenbach.at 0 No Rank 2012-04-19 12:46:37
5223281 feut.org 0 No Rank 2012-04-19 12:46:40
5223282 fewo-seeruhe.at 0 11338173 2012-04-19 12:46:42
5223283 familiaangioletti.info 0 No Rank 2012-04-19 12:46:44
5223284 ff-bernhardschlag.at 0 No Rank 2012-04-19 12:46:46
5223285 familiehopma.nl 0 No Rank 2012-04-19 12:46:46
5223286 fcoutant.freesurf.fr 0 1583668 2012-04-19 12:46:46
5223287 familiefoto.violvej1.dk 0 No Rank 2012-04-19 12:46:46
5223288 ff-fortissimo.info 0 No Rank 2012-04-19 12:46:49
5223289 ff-moorgarten.de 0 No Rank 2012-04-19 12:46:50
5223290 familieschoicecremation.com 0 21016864 2012-04-19 12:46:51
5223291 ff-prellenkirchen.at 0 No Rank 2012-04-19 12:46:52
5223292 ff-scheifling.at 0 No Rank 2012-04-19 12:46:53
5223293 fffund.org 0 No Rank 2012-04-19 12:46:55
5223294 ff-wittenau.de 0 No Rank 2012-04-19 12:46:57
5223295 familyadvances.com 0 No Rank 2012-04-19 12:46:57
5223296 ffjcpa.com 0 No Rank 2012-04-19 12:46:58
5223297 familycampingchecklist.com 0 22772381 2012-04-19 12:46:59
5223298 ffstevencoakley.org 0 No Rank 2012-04-19 12:47:01
5223299 fubosoft.com 0 9514441 2012-04-19 12:47:02
5223300 ffoofwarsaw.com 0 No Rank 2012-04-19 12:47:03
5223301 familycrisiscenternm.net 0 No Rank 2012-04-19 12:47:03
5223302 ffstraineau.com 0 22026096 2012-04-19 12:47:04
5223303 fgame.ru 0 No Rank 2012-04-19 12:47:05
5223304 ffw-naabdemenreuth.de 0 No Rank 2012-04-19 12:47:06
5223305 fgmstone.com 0 No Rank 2012-04-19 12:47:10
5223306 familyhistorycenter.org 0 No Rank 2012-04-19 12:47:10
5223307 fgs-schmittlutz.de 0 No Rank 2012-04-19 12:47:10
5223308 fgsuter.com 0 No Rank 2012-04-19 12:47:14
5223309 fhbhfij.biz 0 No Rank 2012-04-19 12:47:14
5223310 familyproductsgroup.com 0 11583485 2012-04-19 12:47:15
5223311 fhhi.org 0 No Rank 2012-04-19 12:47:16
5223312 fhhs.info 0 No Rank 2012-04-19 12:47:18
5223313 famousjoes.net 0 No Rank 2012-04-19 12:47:18
5223314 familydrugstores.net 0 No Rank 2012-04-19 12:47:20
5223315 fiat-klub.si 0 1952084 2012-04-19 12:47:22
5223316 famst.be 0 15786184 2012-04-19 12:47:22
5223317 fiatclub.ru 0 4220908 2012-04-19 12:47:25
5223318 familyfirstcommunity.com 0 No Rank 2012-04-19 12:47:25
5223319 fan-communities.net 0 No Rank 2012-04-19 12:47:26
5223320 fiatmultijet.com.ar 0 17049648 2012-04-19 12:47:27
5223321 fiavama.net 0 No Rank 2012-04-19 12:47:28
5223322 fanbook.com.ua 0 19303271 2012-04-19 12:47:29
5223323 fiatfreemont.de 0 943184 2012-04-19 12:47:30
5223324 fanbooster.no 0 1648268 2012-04-19 12:47:31
5223325 fancy-pantsdesigns.com 0 No Rank 2012-04-19 12:47:32
5223326 fibrefoods.ie 0 No Rank 2012-04-19 12:47:33
5223327 fancy-vintage.com 0 No Rank 2012-04-19 12:47:34
5223328 fibretex.net 0 28308120 2012-04-19 12:47:35
5223329 fibromyalgia-information.com 0 12685141 2012-04-19 12:47:36
5223330 ficari.it 0 No Rank 2012-04-19 12:47:38
5223331 fancycat.ru 0 27590679 2012-04-19 12:47:38
5223332 fichierplus.com 0 5104486 2012-04-19 12:47:40
5223333 fandom.ca 0 No Rank 2012-04-19 12:47:42
5223334 ficken-partyschnaps.ch 0 No Rank 2012-04-19 12:47:43
5223335 fidanim.com 0 10541562 2012-04-19 12:47:43
5223336 fancytail.fi 0 No Rank 2012-04-19 12:47:43
5223337 fanelligorgoglione.it 0 5774648 2012-04-19 12:47:44
5223338 fattrash.com 0 No Rank 2012-04-19 12:47:44
5223339 fanfare-kermt.be 0 No Rank 2012-04-19 12:47:46
5223340 fidenciacz.cz 0 No Rank 2012-04-19 12:47:47
5223341 fondos123.com 0 5200509 2012-04-19 12:47:48
5223342 fides-ruswil.ch 0 No Rank 2012-04-19 12:47:48
5223343 fanfarria.net 0 No Rank 2012-04-19 12:47:49
5223344 fidexgroupsa.com 0 No Rank 2012-04-19 12:47:51
5223345 fidesz-szolnok.hu 0 No Rank 2012-04-19 12:47:53
5223346 fieldbredspringer.com 0 No Rank 2012-04-19 12:47:53
5223347 fidlatka.cz 0 10118364 2012-04-19 12:47:54
5223348 fiestaband.ie 0 No Rank 2012-04-19 12:47:56
5223349 fieldsflorist.co.nz 0 27643783 2012-04-19 12:47:57
5223350 fietseninnoordholland.nl 0 No Rank 2012-04-19 12:47:59
5223351 fietsomnium.be 0 No Rank 2012-04-19 12:48:00
5223352 fifa-guate.com 0 19394578 2012-04-19 12:48:01
5223353 fifa-club.ucoz.ua 0 No Rank 2012-04-19 12:48:02
5223354 fifth-ave.net 0 No Rank 2012-04-19 12:48:02
5223355 fifine.org 0 5382902 2012-04-19 12:48:03
5223356 fifl.is 0 No Rank 2012-04-19 12:48:04
5223357 figal-sensei.org 0 No Rank 2012-04-19 12:48:05
5223358 fight-zone.ru 0 7937131 2012-04-19 12:48:07
5223359 figurefitness.ie 0 No Rank 2012-04-19 12:48:09
5223360 fijipigdinner.com 0 No Rank 2012-04-19 12:48:11
5223361 fihouse.com 0 20268611 2012-04-19 12:48:11
5223362 fikas-hotel-naxos.gr 0 No Rank 2012-04-19 12:48:15
5223363 fikejambazi.ru 0 4513188 2012-04-19 12:48:15
5223364 filbinger-wagner.de 0 No Rank 2012-04-19 12:48:17
5223365 files.fm 0 1895761 2012-04-19 12:48:21
5223366 fileksa.lt 0 13223678 2012-04-19 12:48:24
5223367 fietsmarkt.eu 0 No Rank 2012-04-19 12:48:24
5223368 fill-ritepumps.com 0 24351311 2012-04-19 12:48:26
5223369 film-dizi.net 0 17719447 2012-04-19 12:48:30
5223370 filippovskoedom.ru 0 11725803 2012-04-19 12:48:30
5223371 filmdelisi.net 0 28330594 2012-04-19 12:48:33
5223372 filmdepartment.de 0 18350591 2012-04-19 12:48:33
5223373 film.gov.np 0 12122643 2012-04-19 12:48:33
5223374 filmenoihd.com 0 No Rank 2012-04-19 12:48:36
5223375 filmec-on-line.at.ua 0 26199561 2012-04-19 12:48:36
5223376 filme-subtitrate.org 0 1693390 2012-04-19 12:48:36
5223377 figni-net.ru 0 4386996 2012-04-19 12:48:37
5223378 filmesdownloadonline.net 0 478193 2012-04-19 12:48:38
5223379 filmforum-selbstgedrehtes.de 0 2901216 2012-04-19 12:48:41
5223380 films-kz.at.ua 0 No Rank 2012-04-19 12:48:43
5223381 filmsbydan.com 0 No Rank 2012-04-19 12:48:44
5223382 filozoos.gr 0 26444898 2012-04-19 12:48:47
5223383 filtech.de 0 6599668 2012-04-19 12:48:48
5223384 filyosboru.com.tr 0 No Rank 2012-04-19 12:48:49
5223385 fimotage.fr 0 No Rank 2012-04-19 12:48:52
5223386 fin-al.ru 0 No Rank 2012-04-19 12:48:53
5223387 filocreative.com 0 No Rank 2012-04-19 12:48:54
5223388 finance-wise.info 0 7265498 2012-04-19 12:48:54
5223389 financial-structures-consulting.com 0 No Rank 2012-04-19 12:48:57
5223390 financeimages.com 0 17731520 2012-04-19 12:48:57
5223391 financeplus.me 0 26571469 2012-04-19 12:48:59
5223392 financialliteracycaribbean.com 0 8657912 2012-04-19 12:49:01
5223393 financialspeaker.net 0 No Rank 2012-04-19 12:49:02
5223394 filosofiajuridica.cl 0 No Rank 2012-04-19 12:49:02
5223395 finanzbuchhaltung-outsourcing.de 0 No Rank 2012-04-19 12:49:04
5223396 financialthemes.com 0 8524330 2012-04-19 12:49:04
5223397 fernold.com 0 No Rank 2012-04-19 12:49:06
5223398 felsystem.com 0 No Rank 2012-04-19 12:49:06
5223399 finar90.student.umm.ac.id 0 56409 2012-04-19 12:49:07
5223400 findalocalplumber.org 0 6288347 2012-04-19 12:49:07
5223401 finas.info 0 No Rank 2012-04-19 12:49:10
5223402 findedeinenweg.at 0 17135329 2012-04-19 12:49:10
5223403 flourishingincrisis.wordpress.com 0 13041584 2012-04-19 12:49:11
5223404 findinfos.info 0 No Rank 2012-04-19 12:49:12
5223405 finde.cn 0 6950163 2012-04-19 12:49:14
5223406 findmore.co.za 0 605248 2012-04-19 12:49:16
5223407 finemint.com 0 No Rank 2012-04-19 12:49:16
5223408 fineandfunnyart.de 0 No Rank 2012-04-19 12:49:18
5223409 fineo.com.pl 0 No Rank 2012-04-19 12:49:18
5223410 finemoby.sells.com.ua 0 121283 2012-04-19 12:49:20
5223411 finestreporte24.com 0 No Rank 2012-04-19 12:49:21
5223412 fine2000.net 0 No Rank 2012-04-19 12:49:21
5223413 fingalmemorials.ie 0 No Rank 2012-04-19 12:49:22
5223414 finikbusiness.ru 0 9878906 2012-04-19 12:49:22
5223415 finextrisk.nl 0 No Rank 2012-04-19 12:49:22
5223416 finitex.de 0 4795331 2012-04-19 12:49:24
5223417 finistd.ru 0 4527155 2012-04-19 12:49:24
5223418 fink-finanz.de 0 27260040 2012-04-19 12:49:26
5223419 finland-hotels.ru 0 No Rank 2012-04-19 12:49:27
5223420 finnplant.fi 0 No Rank 2012-04-19 12:49:28
5223421 finpr.com.ua 0 12927978 2012-04-19 12:49:29
5223422 finpharmanet.utu.fi 0 40802 2012-04-19 12:49:30
5223423 fintech.aero 0 16374104 2012-04-19 12:49:30
5223424 fioravantiecambi.it 0 No Rank 2012-04-19 12:49:31
5223425 finresta.lt 0 No Rank 2012-04-19 12:49:31
5223426 finsbistro.net 0 19865368 2012-04-19 12:49:34
5223427 fiqm.ru 0 8798767 2012-04-19 12:49:35
5223428 firegroundphotos.net 0 No Rank 2012-04-19 12:49:35
5223429 fireflylandscapedesign.com 0 No Rank 2012-04-19 12:49:35
5223430 fire-design.com.ua 0 No Rank 2012-04-19 12:49:35
5223431 firensafety.net 0 No Rank 2012-04-19 12:49:37
5223432 firenicehvac.net 0 23612307 2012-04-19 12:49:37
5223433 firesafecampus.org 0 No Rank 2012-04-19 12:49:39
5223434 finalnews.ru 0 1641788 2012-04-19 12:49:40
5223435 firesignentertainmentgroup.com 0 No Rank 2012-04-19 12:49:40
5223436 firletka.pl 0 27670049 2012-04-19 12:49:41
5223437 fortubiz.com 0 7533598 2012-04-19 12:49:44
5223438 firma-komfort.ru 0 9214037 2012-04-19 12:49:45
5223439 firma-engel.at 0 8551299 2012-04-19 12:49:45
5223440 fortuna-vrbovec.hr 0 No Rank 2012-04-19 12:49:46
5223441 fireplaceshowroomdirect.com 0 25231376 2012-04-19 12:49:47
5223442 fortune-financial.org 0 No Rank 2012-04-19 12:49:48
5223443 fortunafavet.ru 0 14059538 2012-04-19 12:49:48
5223444 fortuna74.ru 0 No Rank 2012-04-19 12:49:48
5223445 fortworthkennelclub.org 0 5461954 2012-04-19 12:49:49
5223446 forum-flusskrebse.org 0 24868630 2012-04-19 12:49:50
5223447 forum-friedrichsdorf.de 0 No Rank 2012-04-19 12:49:51
5223448 forum-link.net 0 No Rank 2012-04-19 12:49:53
5223449 forum-social-tarnais.org 0 14850448 2012-04-19 12:49:54
5223450 forum.dosc.ae 0 3507925 2012-04-19 12:49:56
5223451 forum.antien.com.vn 0 5514268 2012-04-19 12:49:57
5223452 forum.gid.org.ir 0 4825926 2012-04-19 12:49:58
5223453 forum.codrosu.ro 0 137574 2012-04-19 12:49:59
5223454 findajobs.org 0 No Rank 2012-04-19 12:50:00
5223455 forum.idividi.com.mk 0 46255 2012-04-19 12:50:00
5223456 forum.kelevar.cz 0 19532275 2012-04-19 12:50:02
5223457 forum.ofdevilinside.fr 0 333033 2012-04-19 12:50:03
5223458 forum.lo2przemysl.edu.pl 0 25084654 2012-04-19 12:50:03
5223459 forum.petmarket.com.ua 0 1625912 2012-04-19 12:50:05
5223460 forum.sovremennik.dn.ua 0 No Rank 2012-04-19 12:50:05
5223461 forum.svalmelo.nl 0 21556331 2012-04-19 12:50:06
5223462 forum.sman1kalasan.sch.id 0 8107384 2012-04-19 12:50:07
5223463 forum.comenius.org.pl 0 1096276 2012-04-19 12:50:07
5223464 forum.szczecin.pl 0 No Rank 2012-04-19 12:50:08
5223465 forum.thaythuoccuaban.vn 0 3436709 2012-04-19 12:50:08
5223466 forum.worldofshinobi.eu 0 1736101 2012-04-19 12:50:11
5223467 forum.vectraklub.pl 0 179187 2012-04-19 12:50:11
5223468 forumburg.ru 0 13801204 2012-04-19 12:50:12
5223469 forumjeunesselanaudiere.qc.ca 0 No Rank 2012-04-19 12:50:12
5223470 forums.effa.ab.ca 0 15646488 2012-04-19 12:50:13
5223471 forums.x-pal.eu 0 No Rank 2012-04-19 12:50:15
5223472 forum.vfx.vn 0 1477775 2012-04-19 12:50:15
5223473 forwardcoding.com 0 9404738 2012-04-19 12:50:16
5223474 foryou-realestate.com 0 No Rank 2012-04-19 12:50:18
5223475 fossel.de 0 No Rank 2012-04-19 12:50:18
5223476 fosterage.ru 0 6184185 2012-04-19 12:50:20
5223477 fosterspestcontrol.com 0 No Rank 2012-04-19 12:50:20
5223478 foster-nieruchomosci.pl 0 No Rank 2012-04-19 12:50:21
5223479 fostoriabb.org 0 No Rank 2012-04-19 12:50:22
5223480 fotballbok.no 0 No Rank 2012-04-19 12:50:22
5223481 fosweb.dk 0 No Rank 2012-04-19 12:50:22
5223482 forward-dealer.dp.ua 0 14628582 2012-04-19 12:50:22
5223483 fotelka.cz 0 2254057 2012-04-19 12:50:25
5223484 fotka.madness.sk 0 903828 2012-04-19 12:50:26
5223485 foto-board.net 0 No Rank 2012-04-19 12:50:27
5223486 foto-life.net 0 No Rank 2012-04-19 12:50:27
5223487 foto-gribov.ru 0 No Rank 2012-04-19 12:50:28
5223488 fotkom.com.pl 0 16597840 2012-04-19 12:50:28
5223489 foto-peoples.info 0 No Rank 2012-04-19 12:50:29
5223490 foto.illuminacja.pl 0 5573116 2012-04-19 12:50:29
5223491 foto.bbclatemdepinte.be 0 No Rank 2012-04-19 12:50:30
5223492 foto11.nvstreets.dk 0 No Rank 2012-04-19 12:50:32
5223493 foto.kmw.su 0 No Rank 2012-04-19 12:50:33
5223494 foto25.kiev.ua 0 No Rank 2012-04-19 12:50:33
5223495 foto-zanko.ru 0 No Rank 2012-04-19 12:50:34
5223496 fotoarts.org 0 118748 2012-04-19 12:50:36
5223497 fotoclube.ru 0 3990753 2012-04-19 12:50:36
5223498 foto96.ru 0 No Rank 2012-04-19 12:50:37
5223499 fotodance.pl 0 4586035 2012-04-19 12:50:38
5223500 fotodesk.ru 0 12730169 2012-04-19 12:50:39
5223501 fotograf-braunschweig.de 0 19017395 2012-04-19 12:50:40
5223502 fotoelen.ru 0 No Rank 2012-04-19 12:50:40
5223503 fotografia-slubna.info 0 No Rank 2012-04-19 12:50:40
5223504 fotoclubgazel.be 0 No Rank 2012-04-19 12:50:40
5223505 fotografic.cz 0 No Rank 2012-04-19 12:50:42
5223506 fotojourneybook.com 0 No Rank 2012-04-19 12:50:44
5223507 fotoknjiga.com.hr 0 No Rank 2012-04-19 12:50:47
5223508 fotogrupa.pl 0 9818946 2012-04-19 12:50:48
5223509 fotopak.ru 0 6572861 2012-04-19 12:50:49
5223510 fotokuu.ee 0 No Rank 2012-04-19 12:50:50
5223511 fotomodel.ru 0 No Rank 2012-04-19 12:50:51
5223512 fotos-knapen.wikboekel.be 0 No Rank 2012-04-19 12:50:52
5223513 fotoruhl.de 0 22538379 2012-04-19 12:50:52
5223514 fotopoch.cat 0 8189836 2012-04-19 12:50:52
5223515 fotos.shuvit.at 0 3963752 2012-04-19 12:50:53
5223516 fotosportcantabria.com 0 No Rank 2012-04-19 12:50:55
5223517 fotosokvilaga.hu 0 2292105 2012-04-19 12:50:56
5223518 fotosuch-quizfahrt.de 0 21175270 2012-04-19 12:50:57
5223519 fotostudio-wurst.at 0 13439712 2012-04-19 12:50:57
5223520 fotoszubi.pl 0 2367104 2012-04-19 12:50:58
5223521 fotoveggen.no 0 No Rank 2012-04-19 12:50:59
5223522 fotovyaz.ru 0 No Rank 2012-04-19 12:51:01
5223523 fotozvezdi.ru 0 3899077 2012-04-19 12:51:01
5223524 fotoveadug.ru 0 3163699 2012-04-19 12:51:01
5223525 foundationministriesinternational.org 0 24868668 2012-04-19 12:51:02
5223526 fouleesdemulsanne.free.fr 0 No Rank 2012-04-19 12:51:02
5223527 foursquareministry.org 0 No Rank 2012-04-19 12:51:05
5223528 fourseasonstrail.org 0 22773671 2012-04-19 12:51:05
5223529 fourcorners.it 0 6730389 2012-04-19 12:51:05
5223530 foxdalefarm.us 0 26712486 2012-04-19 12:51:07
5223531 foxfotos.com 0 No Rank 2012-04-19 12:51:09
5223532 foxandriddle.com 0 6890130 2012-04-19 12:51:10
5223533 foxholescountrypursuits.com 0 No Rank 2012-04-19 12:51:11
5223534 foxmediaconsulting.com 0 No Rank 2012-04-19 12:51:11
5223535 foxhill.us 0 No Rank 2012-04-19 12:51:13
5223536 foxproduction.it 0 No Rank 2012-04-19 12:51:13
5223537 fotokazimierzdolny.pl 0 No Rank 2012-04-19 12:51:13
5223538 foxsunledsolar.com 0 18447046 2012-04-19 12:51:14
5223539 fpc-gnv.org 0 No Rank 2012-04-19 12:51:15
5223540 fpcnh.org 0 No Rank 2012-04-19 12:51:16
5223541 fotoinpractice.info 0 20585115 2012-04-19 12:51:17
5223542 foxsite.ru 0 No Rank 2012-04-19 12:51:17
5223543 fplp.at 0 8003756 2012-04-19 12:51:20
5223544 fpra.net 0 18260098 2012-04-19 12:51:20
5223545 fpmat.dk 0 No Rank 2012-04-19 12:51:21
5223546 fpjonesboro.org 0 No Rank 2012-04-19 12:51:22
5223547 fqas2004.org 0 No Rank 2012-04-19 12:51:22
5223548 frabranch97.org 0 No Rank 2012-04-19 12:51:23
5223549 fracatango.it 0 No Rank 2012-04-19 12:51:24
5223550 fr.agorapress.be 0 No Rank 2012-04-19 12:51:25
5223551 frachtmeister.at 0 19274963 2012-04-19 12:51:26
5223552 frag-den-spatz.de 0 4605636 2012-04-19 12:51:28
5223553 frame-consulting.com 0 No Rank 2012-04-19 12:51:29
5223554 fralsarkransen.se 0 No Rank 2012-04-19 12:51:30
5223555 frameline.co.za 0 No Rank 2012-04-19 12:51:31
5223556 fpf-portugal.net 0 No Rank 2012-04-19 12:51:32
5223557 frances-plough.net 0 No Rank 2012-04-19 12:51:32
5223558 francescaniccolini.com 0 13611207 2012-04-19 12:51:33
5223559 franceoadvogados.adv.br 0 No Rank 2012-04-19 12:51:33
5223560 francescagullo.com 0 25811709 2012-04-19 12:51:34
5223561 francaferruccishop.it 0 2779650 2012-04-19 12:51:34
5223562 francescopaolorusso.it 0 No Rank 2012-04-19 12:51:35
5223563 francescomalvasi.org 0 No Rank 2012-04-19 12:51:36
5223564 fortuna-test.ru 0 No Rank 2012-04-19 12:51:37
5223565 franchise-law.com 0 8751230 2012-04-19 12:51:37
5223566 francescozenga.it 0 No Rank 2012-04-19 12:51:38
5223567 franciscoariztia.com 0 No Rank 2012-04-19 12:51:50
5223568 franciscojavier.info 0 No Rank 2012-04-19 12:51:51
5223569 franchisepartner.infotoday.com.my 0 434717 2012-04-19 12:51:51
5223570 franciscoramirezacuna.com 0 13329600 2012-04-19 12:51:52
5223571 francois-dupuis.com 0 No Rank 2012-04-19 12:51:53
5223572 francisdevelopments.com 0 No Rank 2012-04-19 12:51:53
5223573 frankdaltonsongs.net 0 No Rank 2012-04-19 12:51:54
5223574 frankfoxphotography.com 0 No Rank 2012-04-19 12:51:55
5223575 frankklepacki.com 0 6021388 2012-04-19 12:51:56
5223576 franklin-graphicsinc.com 0 No Rank 2012-04-19 12:51:57
5223577 frankgrimm.net 0 4444550 2012-04-19 12:51:58
5223578 frankthornton.info 0 No Rank 2012-04-19 12:51:59
5223579 frankstonladieschoir.org 0 No Rank 2012-04-19 12:52:00
5223580 franksoft.ru 0 26349609 2012-04-19 12:52:00
5223581 frankverheyen.com 0 No Rank 2012-04-19 12:52:02
5223582 frankymage.org 0 No Rank 2012-04-19 12:52:03
5223583 franshiza.org 0 No Rank 2012-04-19 12:52:04
5223584 frantsuzov.ru 0 14195945 2012-04-19 12:52:04
5223585 frappuccinomaker.info 0 No Rank 2012-04-19 12:52:05
5223586 frapav.org 0 No Rank 2012-04-19 12:52:06
5223587 frauenaerztin-pichler.at 0 No Rank 2012-04-19 12:52:08
5223588 frauen-coachen-frauen.de 0 6771480 2012-04-19 12:52:10
5223589 freaksorgeeks.be 0 No Rank 2012-04-19 12:52:11
5223590 fred-vienot.com 0 No Rank 2012-04-19 12:52:11
5223591 fredericksburgpc.org 0 No Rank 2012-04-19 12:52:13
5223592 fredypi.ch 0 No Rank 2012-04-19 12:52:14
5223593 free-affiliatemarketing.com 0 No Rank 2012-04-19 12:52:14
5223594 frauenforum-aw.de 0 16827809 2012-04-19 12:52:17
5223595 firmaekle.biz 0 9080693 2012-04-19 12:52:18
5223596 firma-prizma.ru 0 No Rank 2012-04-19 12:52:19
5223597 firmad.ee 0 No Rank 2012-04-19 12:52:20
5223598 firmarehberleri.net 0 5516471 2012-04-19 12:52:21
5223599 fredsbike.be 0 No Rank 2012-04-19 12:52:23
5223600 firmy.hipermieszkanie.pl 0 8362669 2012-04-19 12:52:25
5223601 first-doors.ru 0 3385486 2012-04-19 12:52:25
5223602 firmhosting.eu 0 18652630 2012-04-19 12:52:26
5223603 firstirvingfamily.org 0 No Rank 2012-04-19 12:52:27
5223604 firstelectgroup.net 0 No Rank 2012-04-19 12:52:28
5223605 firstnv.net 0 No Rank 2012-04-19 12:52:30
5223606 firstresponse.ca 0 20949362 2012-04-19 12:52:32
5223607 firstkamtravel.ru 0 No Rank 2012-04-19 12:52:33
5223608 firststatemha.org 0 No Rank 2012-04-19 12:52:33
5223609 firstop.ru 0 7172887 2012-04-19 12:52:34
5223610 firsttester.de 0 No Rank 2012-04-19 12:52:34
5223611 firsttown4-h.org 0 No Rank 2012-04-19 12:52:35
5223612 firstwatch.ie 0 No Rank 2012-04-19 12:52:36
5223613 fischis-skischule.at 0 12199516 2012-04-19 12:52:38
5223614 fishbot.net 0 13646272 2012-04-19 12:52:39
5223615 fishadow.org 0 No Rank 2012-04-19 12:52:39
5223616 fishelsteelws.com 0 No Rank 2012-04-19 12:52:41
5223617 fishfulthinking.ca 0 10284080 2012-04-19 12:52:41
5223618 fishing-games.net 0 18303667 2012-04-19 12:52:42
5223619 fishermannow.com 0 10993358 2012-04-19 12:52:42
5223620 fishermens-tales.ru 0 18740858 2012-04-19 12:52:43
5223621 fishnutrition.uoguelph.ca 0 33771 2012-04-19 12:52:45
5223622 fishingtheabyss.com 0 7669197 2012-04-19 12:52:46
5223623 fiskefluer.net 0 No Rank 2012-04-19 12:52:48
5223624 fit-ya.jp 0 No Rank 2012-04-19 12:52:49
5223625 fitbitreviews.net 0 No Rank 2012-04-19 12:52:49
5223626 fetalrisk.com 0 No Rank 2012-04-19 12:52:49
5223627 fitcurves.cz 0 No Rank 2012-04-19 12:52:50
5223628 fitbody.hu 0 No Rank 2012-04-19 12:52:51
5223629 fishpro.org 0 1114642 2012-04-19 12:52:52
5223630 fitline4.net 0 No Rank 2012-04-19 12:52:53
5223631 fitness-boutique.ch 0 18543432 2012-04-19 12:52:55
5223632 fitnessforlife.org 0 4864972 2012-04-19 12:52:56
5223633 fitness-professional.org 0 24520580 2012-04-19 12:52:56
5223634 fitness-index.hu 0 13933493 2012-04-19 12:52:56
5223635 fitnesspal.co.in 0 10036647 2012-04-19 12:52:58
5223636 fitnesskit.com 0 No Rank 2012-04-19 12:52:59
5223637 fitnessspecialist.be 0 No Rank 2012-04-19 12:53:00
5223638 fito685846.ru 0 No Rank 2012-04-19 12:53:00
5223639 fitnessathome.com.co 0 No Rank 2012-04-19 12:53:01
5223640 fitoterapia.am 0 No Rank 2012-04-19 12:53:01
5223641 fitosandra.ru 0 11563802 2012-04-19 12:53:01
5223642 fitutraining.com 0 No Rank 2012-04-19 12:53:02
5223643 fivedollarfridays.org 0 13515691 2012-04-19 12:53:04
5223644 fitworld.be 0 No Rank 2012-04-19 12:53:04
5223645 fiveminutearticles.info 0 8859383 2012-04-19 12:53:05
5223646 fiveseasons.ru 0 No Rank 2012-04-19 12:53:06
5223647 fivelinedesigns.com 0 11393773 2012-04-19 12:53:07
5223648 fiveweekfatloss.com 0 No Rank 2012-04-19 12:53:07
5223649 fixedfreaks.pl 0 No Rank 2012-04-19 12:53:09
5223650 fixerlabs.com 0 2779014 2012-04-19 12:53:09
5223651 fixit.fr 0 No Rank 2012-04-19 12:53:12
5223652 fixitreview.com 0 No Rank 2012-04-19 12:53:12
5223653 fivespengetips.no 0 No Rank 2012-04-19 12:53:12
5223654 fixrus.net 0 12124261 2012-04-19 12:53:13
5223655 fizbokit.com 0 No Rank 2012-04-19 12:53:13
5223656 fixpunkt.at 0 No Rank 2012-04-19 12:53:13
5223657 fizio-sanja.net 0 18963215 2012-04-19 12:53:16
5223658 fjelleventyr.net 0 No Rank 2012-04-19 12:53:16
5223659 fjluciani.com 0 No Rank 2012-04-19 12:53:16
5223660 fjallalamb.is 0 No Rank 2012-04-19 12:53:16
5223661 fjernhjelp.info 0 No Rank 2012-04-19 12:53:18
5223662 fjf.bbits.dk 0 3085500 2012-04-19 12:53:18
5223663 fjordimage.com 0 No Rank 2012-04-19 12:53:19
5223664 fjordur.ru 0 No Rank 2012-04-19 12:53:20
5223665 fjordvind.no 0 No Rank 2012-04-19 12:53:20
5223666 fk-ramps.ru 0 No Rank 2012-04-19 12:53:21
5223667 fkbinsurance.com 0 No Rank 2012-04-19 12:53:21
5223668 fkalej.fotbalek.cz 0 17348227 2012-04-19 12:53:25
5223669 flag.pinpointu.cv.ua 0 No Rank 2012-04-19 12:53:25
5223670 flagyldk.iblog.dk 0 1789788 2012-04-19 12:53:26
5223671 flamenco.planet.ee 0 172116 2012-04-19 12:53:28
5223672 flagkeepers.com 0 No Rank 2012-04-19 12:53:29
5223673 flagmanmanagement.ru 0 No Rank 2012-04-19 12:53:30
5223674 flange-models.com 0 No Rank 2012-04-19 12:53:31
5223675 flamingo.be 0 462875 2012-04-19 12:53:31
5223676 flanagans.co.nz 0 No Rank 2012-04-19 12:53:31
5223677 flannelsheet.net 0 No Rank 2012-04-19 12:53:32
5223678 flaschool.edu.co 0 No Rank 2012-04-19 12:53:34
5223679 flash-games.free.bg 0 85611 2012-04-19 12:53:35
5223680 flash-gamer.eu 0 10775286 2012-04-19 12:53:35
5223681 flash-host.ru 0 3694566 2012-04-19 12:53:35
5223682 flashcopy.org 0 No Rank 2012-04-19 12:53:36
5223683 flexbrite.com 0 20510714 2012-04-19 12:53:38
5223684 flashwholesaler.com 0 2472365 2012-04-19 12:53:39
5223685 flashlandia.ru 0 11599847 2012-04-19 12:53:39
5223686 flat-retriever.eu 0 No Rank 2012-04-19 12:53:41
5223687 flatcoated.cz 0 No Rank 2012-04-19 12:53:42
5223688 flatmoen.net 0 No Rank 2012-04-19 12:53:44
5223689 flatsperu.com 0 No Rank 2012-04-19 12:53:46
5223690 flatlanders.se 0 23705976 2012-04-19 12:53:47
5223691 flaviafontana.net 0 No Rank 2012-04-19 12:53:51
5223692 flavien-antille.ch 0 No Rank 2012-04-19 12:53:51
5223693 flaviomazzoncini.it 0 17169848 2012-04-19 12:53:52
5223694 flavor.qinono.com.co 0 1093139 2012-04-19 12:53:53
5223695 flavourtravel.co.nz 0 No Rank 2012-04-19 12:53:55
5223696 flavius.online.ro 0 3019651 2012-04-19 12:53:56
5223697 flashfm.tk 0 22026176 2012-04-19 12:53:57
5223698 flatozery.ru 0 No Rank 2012-04-19 12:53:58
5223699 flegentov.name 0 8230258 2012-04-19 12:54:00
5223700 flero.ru 0 380271 2012-04-19 12:54:01
5223701 flesh.tvteh.com.ua 0 26609229 2012-04-19 12:54:01
5223702 fletchersport.co.nz 0 No Rank 2012-04-19 12:54:01
5223703 fleurette.caravan24.ch 0 2482683 2012-04-19 12:54:04
5223704 flex-safe.com 0 No Rank 2012-04-19 12:54:04
5223705 fleurop.ch 0 286148 2012-04-19 12:54:04
5223706 flexdor.it 0 14782481 2012-04-19 12:54:06
5223707 flexgames.net 0 No Rank 2012-04-19 12:54:08
5223708 flexedia.com.my 0 No Rank 2012-04-19 12:54:08
5223709 flexibath.at 0 No Rank 2012-04-19 12:54:09
5223710 fleetimage.co.nz 0 27677679 2012-04-19 12:54:09
5223711 fleximind.de 0 6130215 2012-04-19 12:54:11
5223712 flfitnessandrehab.com 0 No Rank 2012-04-19 12:54:11
5223713 flexus.org.pl 0 20496337 2012-04-19 12:54:12
5223714 fliegaufjewelers.com 0 20251413 2012-04-19 12:54:14
5223715 flightdesign.com 0 700772 2012-04-19 12:54:14
5223716 flightoftheconchords.net 0 No Rank 2012-04-19 12:54:14
5223717 flipos.cl 0 No Rank 2012-04-19 12:54:16
5223718 flight.is 0 No Rank 2012-04-19 12:54:16
5223719 flipclick.jp 0 7480270 2012-04-19 12:54:19
5223720 flipvossen.nl 0 No Rank 2012-04-19 12:54:20
5223721 flisteknikk.no 0 No Rank 2012-04-19 12:54:21
5223722 flisgruppen.no 0 No Rank 2012-04-19 12:54:21
5223723 flitsgrafiek.be 0 No Rank 2012-04-19 12:54:22
5223724 flm.com 0 18640304 2012-04-19 12:54:22
5223725 flitmould.com 0 No Rank 2012-04-19 12:54:23
5223726 floating-shelves.org 0 No Rank 2012-04-19 12:54:25
5223727 flo-mayer.de 0 11343190 2012-04-19 12:54:26
5223728 flomaccreations.com 0 10571173 2012-04-19 12:54:28
5223729 floppymedia.no 0 11160539 2012-04-19 12:54:30
5223730 floors101.com 0 16626771 2012-04-19 12:54:30
5223731 foxprojekt.eu 0 No Rank 2012-04-19 12:54:31
5223732 florack-onlineshop.de 0 No Rank 2012-04-19 12:54:32
5223733 florartes.be 0 17525749 2012-04-19 12:54:34
5223734 floralfinesse.net 0 No Rank 2012-04-19 12:54:35
5223735 florem.cr 0 No Rank 2012-04-19 12:54:36
5223736 florasymons.co.za 0 No Rank 2012-04-19 12:54:37
5223737 floraline.co.il 0 22826051 2012-04-19 12:54:37
5223738 florcert.se 0 No Rank 2012-04-19 12:54:37
5223739 florida-orlando.org 0 16837415 2012-04-19 12:54:39
5223740 floridacommunitiestrust.org 0 No Rank 2012-04-19 12:54:40
5223741 florianweber.me 0 No Rank 2012-04-19 12:54:40
5223742 floridafletes.com.ar 0 No Rank 2012-04-19 12:54:41
5223743 floridadiscdogs.com 0 No Rank 2012-04-19 12:54:41
5223744 free08.taobao.com 0 14 2012-04-19 12:54:41
5223745 florisima.com 0 5668969 2012-04-19 12:54:42
5223746 flotador.cl 0 No Rank 2012-04-19 12:54:46
5223747 flot2017.com 0 167932 2012-04-19 12:54:47
5223748 floumassage.dk 0 No Rank 2012-04-19 12:54:47
5223749 florrie.no 0 No Rank 2012-04-19 12:54:48
5223750 flow.pt 0 No Rank 2012-04-19 12:54:48
5223751 flowers.qinono.com.co 0 1093139 2012-04-19 12:54:51
5223752 flowerrose.jp 0 No Rank 2012-04-19 12:54:52
5223753 flowersbybarbarainc.com 0 No Rank 2012-04-19 12:54:55
5223754 flowersinthecity.ru 0 7851634 2012-04-19 12:54:55
5223755 flowingdharma.org 0 No Rank 2012-04-19 12:54:55
5223756 flowfish.net 0 No Rank 2012-04-19 12:54:56
5223757 flotskaya.net 0 No Rank 2012-04-19 12:54:56
5223758 flp.se 0 No Rank 2012-04-19 12:54:59
5223759 floyelstre.no 0 4763773 2012-04-19 12:55:00
5223760 flucoathletics.org 0 No Rank 2012-04-19 12:55:03
5223761 flowdesign.eu 0 No Rank 2012-04-19 12:55:03
5223762 flueckiger-baumschulen.ch 0 No Rank 2012-04-19 12:55:03
5223763 fluegelhorn.net 0 No Rank 2012-04-19 12:55:04
5223764 flt.ch 0 No Rank 2012-04-19 12:55:04
5223765 flugumyri.is 0 No Rank 2012-04-19 12:55:05
5223766 fluh.net 0 No Rank 2012-04-19 12:55:06
5223767 fluidanalysis.ie 0 No Rank 2012-04-19 12:55:07
5223768 flutterbug.us 0 No Rank 2012-04-19 12:55:08
5223769 fly959.gr 0 No Rank 2012-04-19 12:55:11
5223770 fly-e135.ru 0 19218207 2012-04-19 12:55:13
5223771 flydoor.biz 0 No Rank 2012-04-19 12:55:13
5223772 flyhorseranch.com 0 14354585 2012-04-19 12:55:15
5223773 flyhelicopterindia.com 0 5435588 2012-04-19 12:55:15
5223774 flyingbeet.com 0 No Rank 2012-04-19 12:55:17
5223775 flyinghotjackets.com 0 No Rank 2012-04-19 12:55:19
5223776 flyfishing-guide.ru 0 No Rank 2012-04-19 12:55:20
5223777 flyamerica.com.br 0 No Rank 2012-04-19 12:55:22
5223778 flymedic.de 0 2597557 2012-04-19 12:55:24
5223779 flyniki.hu 0 14660349 2012-04-19 12:55:25
5223780 flypresqueisle.com 0 9798604 2012-04-19 12:55:26
5223781 fm-upgrade.ru 0 4767873 2012-04-19 12:55:30
5223782 fmencuentroonline.com 0 No Rank 2012-04-19 12:55:30
5223783 fmguemes951.com.ar 0 No Rank 2012-04-19 12:55:31
5223784 fmscomputers.ru 0 No Rank 2012-04-19 12:55:36
5223785 fnbest.com 0 No Rank 2012-04-19 12:55:38
5223786 fmlwine.com 0 No Rank 2012-04-19 12:55:40
5223787 fnoel.archt.ph 0 No Rank 2012-04-19 12:55:40
5223788 fnone.ca 0 No Rank 2012-04-19 12:55:41
5223789 foampillows.com 0 4532318 2012-04-19 12:55:42
5223790 focus-class.ru 0 7720809 2012-04-19 12:55:45
5223791 focusawards.org 0 No Rank 2012-04-19 12:55:47
5223792 focusfilm.at 0 No Rank 2012-04-19 12:55:48
5223793 focus.warszawa.pl 0 No Rank 2012-04-19 12:55:48
5223794 focusinternationalpk.com 0 No Rank 2012-04-19 12:55:48
5223795 focusmont.com 0 No Rank 2012-04-19 12:55:49
5223796 focusproperties.gr 0 No Rank 2012-04-19 12:55:50
5223797 fofmedicalsupportfund.org 0 No Rank 2012-04-19 12:55:52
5223798 focustechnology.biz 0 No Rank 2012-04-19 12:55:53
5223799 focusys.hu 0 No Rank 2012-04-19 12:55:54
5223800 fogl-elektro.cz 0 No Rank 2012-04-19 12:55:56
5223801 foldabletreadmills.com 0 No Rank 2012-04-19 12:55:57
5223802 foggi.ro 0 26498265 2012-04-19 12:55:57
5223803 foid.ru 0 No Rank 2012-04-19 12:55:59
5223804 folie-rollo.com 0 No Rank 2012-04-19 12:56:00
5223805 foldvarsarok.hu 0 No Rank 2012-04-19 12:56:00
5223806 foljfrida.se 0 14020856 2012-04-19 12:56:01
5223807 folklores.be 0 No Rank 2012-04-19 12:56:01
5223808 follodr.no 0 12671143 2012-04-19 12:56:03
5223809 fondationcorazon.com 0 No Rank 2012-04-19 12:56:05
5223810 followthisinstructions.de 0 No Rank 2012-04-19 12:56:05
5223811 foltin-stretchfolie.de 0 No Rank 2012-04-19 12:56:05
5223812 fondosdepantalla.ws 0 No Rank 2012-04-19 12:56:07
5223813 fonduefountain.org 0 No Rank 2012-04-19 12:56:08
5223814 fonebot.com 0 7459061 2012-04-19 12:56:09
5223815 fontana-directory.info 0 6303362 2012-04-19 12:56:11
5223816 fondgkh-nso.ru 0 9612442 2012-04-19 12:56:12
5223817 food-artist.ch 0 18914437 2012-04-19 12:56:13
5223818 foodatstudy.be 0 No Rank 2012-04-19 12:56:13
5223819 foodanddrinksasia.com.ph 0 22407849 2012-04-19 12:56:13
5223820 foodfreshiga.com 0 No Rank 2012-04-19 12:56:14
5223821 fonkok.infotoday.com.my 0 434717 2012-04-19 12:56:17
5223822 foodprocessor-reviews.net 0 21194153 2012-04-19 12:56:17
5223823 foodtechcareers.org 0 13316471 2012-04-19 12:56:17
5223824 foodwarmers.info 0 14217096 2012-04-19 12:56:20
5223825 football-world-cup-2010.net 0 No Rank 2012-04-19 12:56:20
5223826 football-inform.ru 0 No Rank 2012-04-19 12:56:21
5223827 fhacenter.org 0 No Rank 2012-04-19 12:56:22
5223828 foodmonitor.ru 0 2333644 2012-04-19 12:56:24
5223829 footmania.ru 0 13335397 2012-04-19 12:56:25
5223830 freshcargo.ru 0 No Rank 2012-04-19 12:56:26
5223831 footfleece.co.nz 0 15129942 2012-04-19 12:56:26
5223832 for-alquds.org 0 26604578 2012-04-19 12:56:28
5223833 footyfans.net 0 28518691 2012-04-19 12:56:28
5223834 fopix3d.eu 0 No Rank 2012-04-19 12:56:29
5223835 for-ryan.org 0 No Rank 2012-04-19 12:56:30
5223836 for-free-download.com 0 15794312 2012-04-19 12:56:30
5223837 forarte.com.ar 0 No Rank 2012-04-19 12:56:32
5223838 forababy.org 0 11330395 2012-04-19 12:56:33
5223839 forademoda.net 0 5388789 2012-04-19 12:56:33
5223840 for-size.net 0 No Rank 2012-04-19 12:56:34
5223841 forbetterlivingcananda.com 0 No Rank 2012-04-19 12:56:35
5223842 forbes.no 0 No Rank 2012-04-19 12:56:35
5223843 force-7.com 0 10665535 2012-04-19 12:56:37
5223844 fordcarsworld.com 0 11802894 2012-04-19 12:56:39
5223845 ford.mk 0 2139413 2012-04-19 12:56:40
5223846 ford-jagersberger.at 0 No Rank 2012-04-19 12:56:40
5223847 fordsautomotive.net 0 No Rank 2012-04-19 12:56:43
5223848 fordhamgms.org 0 No Rank 2012-04-19 12:56:43
5223849 foreclosures-in-california.net 0 No Rank 2012-04-19 12:56:46
5223850 forenadkraft.se 0 No Rank 2012-04-19 12:56:46
5223851 forellenheim.com 0 No Rank 2012-04-19 12:56:46
5223852 forensicart.com 0 No Rank 2012-04-19 12:56:48
5223853 foreks.in 0 No Rank 2012-04-19 12:56:49
5223854 forensicauditfirm.com 0 No Rank 2012-04-19 12:56:49
5223855 forentino.ru 0 No Rank 2012-04-19 12:56:51
5223856 forest.gen.nz 0 6850256 2012-04-19 12:56:52
5223857 forestsforever.org 0 16539965 2012-04-19 12:56:52
5223858 forestryest.ee 0 No Rank 2012-04-19 12:56:53
5223859 foretagenshistoria.se 0 No Rank 2012-04-19 12:56:55
5223860 foreverengland.com 0 16256843 2012-04-19 12:56:56
5223861 forex-bcs.com 0 19668729 2012-04-19 12:56:57
5223862 forex-start.net 0 No Rank 2012-04-19 12:56:58
5223863 forexangel.de 0 3808294 2012-04-19 12:56:59
5223864 forexebooks.org 0 15346937 2012-04-19 12:57:00
5223865 forexele.ru 0 No Rank 2012-04-19 12:57:01
5223866 forexlionfx.com 0 22752173 2012-04-19 12:57:03
5223867 forexsolutionguide.com 0 No Rank 2012-04-19 12:57:04
5223868 forexstudy.net 0 6234992 2012-04-19 12:57:05
5223869 forextester.co.il 0 No Rank 2012-04-19 12:57:06
5223870 forexultimatesystembonus.org 0 20268674 2012-04-19 12:57:09
5223871 forfullmusikk.no 0 4943422 2012-04-19 12:57:09
5223872 forgemetalworks.net 0 No Rank 2012-04-19 12:57:10
5223873 forgottenchildrenofhonduras.org 0 No Rank 2012-04-19 12:57:10
5223874 fork-lift-truck.org 0 6444829 2012-04-19 12:57:11
5223875 forkliftkiralamaservisi.tk 0 No Rank 2012-04-19 12:57:14
5223876 frucosite.com 0 No Rank 2012-04-19 12:57:15
5223877 forkliftlicencetraining.net 0 24454156 2012-04-19 12:57:17
5223878 format-fm.ru 0 No Rank 2012-04-19 12:57:17
5223879 forlifedesign.ru 0 No Rank 2012-04-19 12:57:18
5223880 forauto.org.ua 0 10443540 2012-04-19 12:57:19
5223881 formanato.com.ua 0 5839264 2012-04-19 12:57:19
5223882 formboost.com 0 No Rank 2012-04-19 12:57:20
5223883 formatrix.ru 0 No Rank 2012-04-19 12:57:21
5223884 formfrei.tv 0 No Rank 2012-04-19 12:57:22
5223885 formedicine.ru 0 No Rank 2012-04-19 12:57:24
5223886 formula1-racing-simulator.com 0 No Rank 2012-04-19 12:57:25
5223887 formthotics.ru 0 3748527 2012-04-19 12:57:25
5223888 formulagroup.net 0 No Rank 2012-04-19 12:57:29
5223889 formosa.gov.ar 0 2145636 2012-04-19 12:57:29
5223890 forodeportivo.org.ar 0 No Rank 2012-04-19 12:57:30
5223891 format-svet.ru 0 No Rank 2012-04-19 12:57:32
5223892 foroderzo.it 0 9118503 2012-04-19 12:57:33
5223893 forpolimer.ru 0 No Rank 2012-04-19 12:57:34
5223894 forrestmarketing.ca 0 25434891 2012-04-19 12:57:34
5223895 forsen.fi 0 No Rank 2012-04-19 12:57:35
5223896 forshock.ru 0 9004404 2012-04-19 12:57:37
5223897 forsaleheadquarters.net 0 No Rank 2012-04-19 12:57:38
5223898 forsmaster.ru 0 No Rank 2012-04-19 12:57:39
5223899 forsolseafood.no 0 No Rank 2012-04-19 12:57:39
5223900 forsycon.com 0 No Rank 2012-04-19 12:57:42
5223901 forsociologists.ru 0 No Rank 2012-04-19 12:57:46
5223902 forsvadba.org 0 11054015 2012-04-19 12:57:49
5223903 fortlangley.org 0 No Rank 2012-04-19 12:57:50
5223904 forstudentpower.org 0 13782729 2012-04-19 12:57:51
5223905 free-clipart.info 0 No Rank 2012-04-19 12:57:54
5223906 free-archive.ru 0 No Rank 2012-04-19 12:57:54
5223907 free-browserdownload.net 0 No Rank 2012-04-19 12:57:55
5223908 free-creditcard.ru 0 No Rank 2012-04-19 12:57:58
5223909 free-mp3-music.ru 0 No Rank 2012-04-19 12:58:00
5223910 free-rapbeats.info 0 No Rank 2012-04-19 12:58:01
5223911 free-time.kr 0 No Rank 2012-04-19 12:58:03
5223912 for-girl.net 0 No Rank 2012-04-19 12:58:07
5223913 freebiesstore.net 0 No Rank 2012-04-19 12:58:07
5223914 freebmicalculator.info 0 No Rank 2012-04-19 12:58:08
5223915 freecamp.co.nz 0 No Rank 2012-04-19 12:58:11
5223916 freecop.com 0 No Rank 2012-04-19 12:58:12
5223917 freeconverter.org 0 4904284 2012-04-19 12:58:13
5223918 freecigarettecoupons.org 0 No Rank 2012-04-19 12:58:14
5223919 freedomministriesinc.org 0 No Rank 2012-04-19 12:58:15
5223920 freedomfrompcos.net 0 No Rank 2012-04-19 12:58:17
5223921 freedplasticsurgery.com 0 13449847 2012-04-19 12:58:17
5223922 freefinancialbrokerdirectoryonline.com 0 No Rank 2012-04-19 12:58:18
5223923 freedownloadspc.info 0 7463200 2012-04-19 12:58:18
5223924 freefootballgames.org 0 639726 2012-04-19 12:58:20
5223925 freedown.ee 0 11543021 2012-04-19 12:58:20
5223926 freefunnysayings.com 0 16753340 2012-04-19 12:58:23
5223927 freegamingrewards.com 0 4369132 2012-04-19 12:58:24
5223928 forsapress.ru 0 No Rank 2012-04-19 12:58:26
5223929 freemat.info 0 8217539 2012-04-19 12:58:27
5223930 freelarassistencia.com.br 0 No Rank 2012-04-19 12:58:28
5223931 freemanstudio.net 0 No Rank 2012-04-19 12:58:28
5223932 freelove.co.nz 0 18055585 2012-04-19 12:58:29
5223933 freeimvucredits.org 0 14514923 2012-04-19 12:58:30
5223934 freemedconsult.ru 0 No Rank 2012-04-19 12:58:31
5223935 freeonlinegamesportal.com 0 No Rank 2012-04-19 12:58:32
5223936 freemicrosoftdownload.org 0 No Rank 2012-04-19 12:58:32
5223937 freenappies.co.nz 0 No Rank 2012-04-19 12:58:33
5223938 freequranonline.org 0 No Rank 2012-04-19 12:58:34
5223939 freeontheinside.us 0 No Rank 2012-04-19 12:58:35
5223940 freeseotools.it 0 1705319 2012-04-19 12:58:39
5223941 freerunning.pl 0 No Rank 2012-04-19 12:58:39
5223942 freeridesurfskate.co.nz 0 7777119 2012-04-19 12:58:40
5223943 freethoughtcanada.ca 0 26076675 2012-04-19 12:58:41
5223944 freetargetedtraffic.net 0 3532244 2012-04-19 12:58:42
5223945 freetime.be 0 14570342 2012-04-19 12:58:43
5223946 freewords.org 0 10065060 2012-04-19 12:58:45
5223947 freeveda.org 0 6035718 2012-04-19 12:58:45
5223948 freightafrica.be 0 7860365 2012-04-19 12:58:46
5223949 freex.lt 0 No Rank 2012-04-19 12:58:46
5223950 freieschulewetterau.de 0 No Rank 2012-04-19 12:58:46
5223951 freightland.eu 0 No Rank 2012-04-19 12:58:47
5223952 freiraum-godelmann.de 0 No Rank 2012-04-19 12:58:50
5223953 freijabeauty.lv 0 No Rank 2012-04-19 12:58:50
5223954 freilichtbuehne.at 0 No Rank 2012-04-19 12:58:51
5223955 freimarcelo.com.br 0 No Rank 2012-04-19 12:58:51
5223956 fremontpool.org 0 No Rank 2012-04-19 12:58:52
5223957 freestylebiella.it 0 No Rank 2012-04-19 12:58:52
5223958 forwowgold.tk 0 2814473 2012-04-19 12:58:53
5223959 frelsesarmeen.musiconline.no 0 1758190 2012-04-19 12:58:53
5223960 frenchjobs.us 0 5595263 2012-04-19 12:58:54
5223961 frenchbulldogcare.net 0 16996266 2012-04-19 12:58:54
5223962 frenchantiquedesks.info 0 No Rank 2012-04-19 12:58:55
5223963 freshshop.co 0 No Rank 2012-04-19 12:58:58
5223964 freshwindchurch.com 0 No Rank 2012-04-19 12:58:59
5223965 freunschlag.at 0 No Rank 2012-04-19 12:59:00
5223966 freyapiryns.be 0 12175321 2012-04-19 12:59:01
5223967 fridap.se 0 No Rank 2012-04-19 12:59:03
5223968 fridaybridge.net 0 No Rank 2012-04-19 12:59:04
5223969 frezeruem.ru 0 13777525 2012-04-19 12:59:04
5223970 fri.if.ua 0 No Rank 2012-04-19 12:59:05
5223971 fridgemagnets.ca 0 No Rank 2012-04-19 12:59:05
5223972 friendsalongtheroad.org 0 27394119 2012-04-19 12:59:06
5223973 friendlyclean.com 0 13457445 2012-04-19 12:59:08
5223974 friendsbloopers.com 0 16947953 2012-04-19 12:59:08
5223975 friendshipfireco.com 0 No Rank 2012-04-19 12:59:08
5223976 friendshipmontessori.org 0 No Rank 2012-04-19 12:59:09
5223977 fast2fone.com 0 No Rank 2012-04-19 12:59:10
5223978 friendsofadultcare.com 0 No Rank 2012-04-19 12:59:10
5223979 friendsofbreastfeeding.ie 0 No Rank 2012-04-19 12:59:11
5223980 friendsofchildrencelebration.com 0 No Rank 2012-04-19 12:59:12
5223981 friendsofjaveriana.org 0 No Rank 2012-04-19 12:59:12
5223982 friendshospicepaphos.org 0 25048246 2012-04-19 12:59:12
5223983 friendsofmillcreek.org 0 No Rank 2012-04-19 12:59:15
5223984 friendsofmountcarleton.ca 0 25303484 2012-04-19 12:59:16
5223985 friendsofthebahamas.com 0 No Rank 2012-04-19 12:59:17
5223986 friendsoftherancocas.org 0 No Rank 2012-04-19 12:59:17
5223987 frifonxchange.com 0 No Rank 2012-04-19 12:59:23
5223988 friendskuafor.com 0 No Rank 2012-04-19 12:59:23
5223989 friseur-am-platz.at 0 No Rank 2012-04-19 12:59:24
5223990 friscoarts.com 0 16921104 2012-04-19 12:59:26
5223991 frilight.net 0 No Rank 2012-04-19 12:59:26
5223992 friseur-preetz.com 0 No Rank 2012-04-19 12:59:26
5223993 friseur-bayer.at 0 No Rank 2012-04-19 12:59:27
5223994 fristers.org 0 No Rank 2012-04-19 12:59:28
5223995 friseurinnung-ffb.de 0 No Rank 2012-04-19 12:59:28
5223996 fritzschmitz.de 0 No Rank 2012-04-19 12:59:30
5223997 friv4.net 0 3001988 2012-04-19 12:59:30
5223998 fritidsbyg.dk 0 No Rank 2012-04-19 12:59:30
5223999 frizeri.info 0 No Rank 2012-04-19 12:59:32